Year,Month,Day,Hour,Minute,Value (Times are PST for temperature in C)
2010,07,19,00,00,14.50
2010,07,19,00,01,14.50
2010,07,19,00,02,14.50
2010,07,19,00,03,14.40
2010,07,19,00,04,14.40
2010,07,19,00,05,14.40
2010,07,19,00,06,14.40
2010,07,19,00,07,14.30
2010,07,19,00,08,14.30
2010,07,19,00,09,14.30
2010,07,19,00,10,14.30
2010,07,19,00,11,14.30
2010,07,19,00,12,14.30
2010,07,19,00,13,14.20
2010,07,19,00,14,14.20
2010,07,19,00,15,14.20
2010,07,19,00,16,14.20
2010,07,19,00,17,14.20
2010,07,19,00,18,14.20
2010,07,19,00,19,14.10
2010,07,19,00,20,14.10
2010,07,19,00,21,14.10
2010,07,19,00,22,14.10
2010,07,19,00,23,14.00
2010,07,19,00,24,14.00
2010,07,19,00,25,14.00
2010,07,19,00,26,13.90
2010,07,19,00,27,13.90
2010,07,19,00,28,13.90
2010,07,19,00,29,13.90
2010,07,19,00,30,13.90
2010,07,19,00,31,13.90
2010,07,19,00,32,13.80
2010,07,19,00,33,13.80
2010,07,19,00,34,13.80
2010,07,19,00,35,13.80
2010,07,19,00,36,13.80
2010,07,19,00,37,13.80
2010,07,19,00,38,13.70
2010,07,19,00,39,13.70
2010,07,19,00,40,13.70
2010,07,19,00,41,13.70
2010,07,19,00,42,13.70
2010,07,19,00,43,13.70
2010,07,19,00,44,13.70
2010,07,19,00,45,13.70
2010,07,19,00,46,13.70
2010,07,19,00,47,13.70
2010,07,19,00,48,13.60
2010,07,19,00,49,13.60
2010,07,19,00,50,13.60
2010,07,19,00,51,13.60
2010,07,19,00,52,13.50
2010,07,19,00,53,13.50
2010,07,19,00,54,13.40
2010,07,19,00,55,13.40
2010,07,19,00,56,13.40
2010,07,19,00,57,13.40
2010,07,19,00,58,13.30
2010,07,19,00,59,13.30
2010,07,19,01,00,13.30
2010,07,19,01,01,13.30
2010,07,19,01,02,13.30
2010,07,19,01,03,13.30
2010,07,19,01,04,13.20
2010,07,19,01,05,13.20
2010,07,19,01,06,13.20
2010,07,19,01,07,13.10
2010,07,19,01,08,13.10
2010,07,19,01,09,13.10
2010,07,19,01,10,13.10
2010,07,19,01,11,13.10
2010,07,19,01,12,13.10
2010,07,19,01,13,13.10
2010,07,19,01,14,13.10
2010,07,19,01,15,13.00
2010,07,19,01,16,13.00
2010,07,19,01,17,13.00
2010,07,19,01,18,12.90
2010,07,19,01,19,12.90
2010,07,19,01,20,12.90
2010,07,19,01,21,12.90
2010,07,19,01,22,12.90
2010,07,19,01,23,12.80
2010,07,19,01,24,12.80
2010,07,19,01,25,12.80
2010,07,19,01,26,12.80
2010,07,19,01,27,12.70
2010,07,19,01,28,12.70
2010,07,19,01,29,12.70
2010,07,19,01,30,12.70
2010,07,19,01,31,12.60
2010,07,19,01,32,12.60
2010,07,19,01,33,12.60
2010,07,19,01,34,12.60
2010,07,19,01,35,12.60
2010,07,19,01,36,12.50
2010,07,19,01,37,12.50
2010,07,19,01,38,12.50
2010,07,19,01,39,12.50
2010,07,19,01,40,12.50
2010,07,19,01,41,12.50
2010,07,19,01,42,12.40
2010,07,19,01,43,12.40
2010,07,19,01,44,12.40
2010,07,19,01,45,12.30
2010,07,19,01,46,12.30
2010,07,19,01,47,12.30
2010,07,19,01,48,12.30
2010,07,19,01,49,12.30
2010,07,19,01,50,12.30
2010,07,19,01,51,12.30
2010,07,19,01,52,12.20
2010,07,19,01,53,12.20
2010,07,19,01,54,12.20
2010,07,19,01,55,12.20
2010,07,19,01,56,12.20
2010,07,19,01,57,12.20
2010,07,19,01,58,12.20
2010,07,19,01,59,12.10
2010,07,19,02,00,12.10
2010,07,19,02,01,12.10
2010,07,19,02,02,12.10
2010,07,19,02,03,12.10
2010,07,19,02,04,12.00
2010,07,19,02,05,12.00
2010,07,19,02,06,12.00
2010,07,19,02,07,11.90
2010,07,19,02,08,11.90
2010,07,19,02,09,11.90
2010,07,19,02,10,11.90
2010,07,19,02,11,11.90
2010,07,19,02,12,11.90
2010,07,19,02,13,11.90
2010,07,19,02,14,11.90
2010,07,19,02,15,11.90
2010,07,19,02,16,11.90
2010,07,19,02,17,11.90
2010,07,19,02,18,11.80
2010,07,19,02,19,11.80
2010,07,19,02,20,11.80
2010,07,19,02,21,11.80
2010,07,19,02,22,11.80
2010,07,19,02,23,11.80
2010,07,19,02,24,11.80
2010,07,19,02,25,11.80
2010,07,19,02,26,11.80
2010,07,19,02,27,11.80
2010,07,19,02,28,11.80
2010,07,19,02,29,11.70
2010,07,19,02,30,11.70
2010,07,19,02,31,11.70
2010,07,19,02,32,11.70
2010,07,19,02,33,11.70
2010,07,19,02,34,11.70
2010,07,19,02,35,11.60
2010,07,19,02,36,11.60
2010,07,19,02,37,11.60
2010,07,19,02,38,11.60
2010,07,19,02,39,11.60
2010,07,19,02,40,11.60
2010,07,19,02,41,11.60
2010,07,19,02,42,11.60
2010,07,19,02,43,11.60
2010,07,19,02,44,11.60
2010,07,19,02,45,11.60
2010,07,19,02,46,11.60
2010,07,19,02,47,11.70
2010,07,19,02,48,11.70
2010,07,19,02,49,11.70
2010,07,19,02,50,11.70
2010,07,19,02,51,11.70
2010,07,19,02,52,11.60
2010,07,19,02,53,11.60
2010,07,19,02,54,11.60
2010,07,19,02,55,11.60
2010,07,19,02,56,11.60
2010,07,19,02,57,11.60
2010,07,19,02,58,11.60
2010,07,19,02,59,11.60
2010,07,19,03,00,11.60
2010,07,19,03,01,11.60
2010,07,19,03,02,11.50
2010,07,19,03,03,11.50
2010,07,19,03,04,11.50
2010,07,19,03,05,11.50
2010,07,19,03,06,11.50
2010,07,19,03,07,11.50
2010,07,19,03,08,11.50
2010,07,19,03,09,11.40
2010,07,19,03,10,11.40
2010,07,19,03,11,11.40
2010,07,19,03,12,11.40
2010,07,19,03,13,11.40
2010,07,19,03,14,11.40
2010,07,19,03,15,11.40
2010,07,19,03,16,11.40
2010,07,19,03,17,11.40
2010,07,19,03,18,11.40
2010,07,19,03,19,11.40
2010,07,19,03,20,11.40
2010,07,19,03,21,11.40
2010,07,19,03,22,11.40
2010,07,19,03,23,11.40
2010,07,19,03,24,11.40
2010,07,19,03,25,11.40
2010,07,19,03,26,11.40
2010,07,19,03,27,11.40
2010,07,19,03,28,11.40
2010,07,19,03,29,11.30
2010,07,19,03,30,11.30
2010,07,19,03,31,11.30
2010,07,19,03,32,11.30
2010,07,19,03,33,11.30
2010,07,19,03,34,11.30
2010,07,19,03,35,11.30
2010,07,19,03,36,11.20
2010,07,19,03,37,11.20
2010,07,19,03,38,11.20
2010,07,19,03,39,11.20
2010,07,19,03,40,11.20
2010,07,19,03,41,11.20
2010,07,19,03,42,11.20
2010,07,19,03,43,11.10
2010,07,19,03,44,11.10
2010,07,19,03,45,11.10
2010,07,19,03,46,11.10
2010,07,19,03,47,11.10
2010,07,19,03,48,11.00
2010,07,19,03,49,11.00
2010,07,19,03,50,11.00
2010,07,19,03,51,11.00
2010,07,19,03,52,11.00
2010,07,19,03,53,10.90
2010,07,19,03,54,10.90
2010,07,19,03,55,10.90
2010,07,19,03,56,10.90
2010,07,19,03,57,10.90
2010,07,19,03,58,10.90
2010,07,19,03,59,10.90
2010,07,19,04,00,10.90
2010,07,19,04,01,10.90
2010,07,19,04,02,10.90
2010,07,19,04,03,10.90
2010,07,19,04,04,10.90
2010,07,19,04,05,10.90
2010,07,19,04,06,10.90
2010,07,19,04,07,10.80
2010,07,19,04,08,10.80
2010,07,19,04,09,10.80
2010,07,19,04,10,10.80
2010,07,19,04,11,10.80
2010,07,19,04,12,10.80
2010,07,19,04,13,10.80
2010,07,19,04,14,10.80
2010,07,19,04,15,10.80
2010,07,19,04,16,10.80
2010,07,19,04,17,10.80
2010,07,19,04,18,10.80
2010,07,19,04,19,10.80
2010,07,19,04,20,10.80
2010,07,19,04,21,10.80
2010,07,19,04,22,10.80
2010,07,19,04,23,10.80
2010,07,19,04,24,10.70
2010,07,19,04,25,10.70
2010,07,19,04,26,10.70
2010,07,19,04,27,10.70
2010,07,19,04,28,10.60
2010,07,19,04,29,10.60
2010,07,19,04,30,10.60
2010,07,19,04,31,10.60
2010,07,19,04,32,10.60
2010,07,19,04,33,10.60
2010,07,19,04,34,10.60
2010,07,19,04,35,10.60
2010,07,19,04,36,10.60
2010,07,19,04,37,10.60
2010,07,19,04,38,10.60
2010,07,19,04,39,10.60
2010,07,19,04,40,10.60
2010,07,19,04,41,10.60
2010,07,19,04,42,10.70
2010,07,19,04,43,10.70
2010,07,19,04,44,10.70
2010,07,19,04,45,10.70
2010,07,19,04,46,10.70
2010,07,19,04,47,10.70
2010,07,19,04,48,10.70
2010,07,19,04,49,10.70
2010,07,19,04,50,10.70
2010,07,19,04,51,10.70
2010,07,19,04,52,10.70
2010,07,19,04,53,10.70
2010,07,19,04,54,10.60
2010,07,19,04,55,10.60
2010,07,19,04,56,10.60
2010,07,19,04,57,10.60
2010,07,19,04,58,10.60
2010,07,19,04,59,10.60
2010,07,19,05,00,10.60
2010,07,19,05,01,10.60
2010,07,19,05,02,10.70
2010,07,19,05,03,10.60
2010,07,19,05,04,10.60
2010,07,19,05,05,10.60
2010,07,19,05,06,10.60
2010,07,19,05,07,10.60
2010,07,19,05,08,10.60
2010,07,19,05,09,10.60
2010,07,19,05,10,10.60
2010,07,19,05,11,10.60
2010,07,19,05,12,10.60
2010,07,19,05,13,10.60
2010,07,19,05,14,10.60
2010,07,19,05,15,10.60
2010,07,19,05,16,10.50
2010,07,19,05,17,10.50
2010,07,19,05,18,10.50
2010,07,19,05,19,10.50
2010,07,19,05,20,10.50
2010,07,19,05,21,10.40
2010,07,19,05,22,10.40
2010,07,19,05,23,10.40
2010,07,19,05,24,10.40
2010,07,19,05,25,10.40
2010,07,19,05,26,10.40
2010,07,19,05,27,10.40
2010,07,19,05,28,10.40
2010,07,19,05,29,10.40
2010,07,19,05,30,10.30
2010,07,19,05,31,10.30
2010,07,19,05,32,10.30
2010,07,19,05,33,10.30
2010,07,19,05,34,10.30
2010,07,19,05,35,10.30
2010,07,19,05,36,10.30
2010,07,19,05,37,10.30
2010,07,19,05,38,10.30
2010,07,19,05,39,10.30
2010,07,19,05,40,10.30
2010,07,19,05,41,10.30
2010,07,19,05,42,10.30
2010,07,19,05,43,10.30
2010,07,19,05,44,10.30
2010,07,19,05,45,10.30
2010,07,19,05,46,10.30
2010,07,19,05,47,10.30
2010,07,19,05,48,10.30
2010,07,19,05,49,10.40
2010,07,19,05,50,10.40
2010,07,19,05,51,10.40
2010,07,19,05,52,10.40
2010,07,19,05,53,10.40
2010,07,19,05,54,10.40
2010,07,19,05,55,10.40
2010,07,19,05,56,10.40
2010,07,19,05,57,10.50
2010,07,19,05,58,10.40
2010,07,19,05,59,10.50
2010,07,19,06,00,10.40
2010,07,19,06,01,10.40
2010,07,19,06,02,10.40
2010,07,19,06,03,10.40
2010,07,19,06,04,10.40
2010,07,19,06,05,10.40
2010,07,19,06,06,10.40
2010,07,19,06,07,10.40
2010,07,19,06,08,10.40
2010,07,19,06,09,10.50
2010,07,19,06,10,10.50
2010,07,19,06,11,10.50
2010,07,19,06,12,10.50
2010,07,19,06,13,10.50
2010,07,19,06,14,10.50
2010,07,19,06,15,10.50
2010,07,19,06,16,10.50
2010,07,19,06,17,10.50
2010,07,19,06,18,10.50
2010,07,19,06,19,10.50
2010,07,19,06,20,10.60
2010,07,19,06,21,10.60
2010,07,19,06,22,10.60
2010,07,19,06,23,10.70
2010,07,19,06,24,10.70
2010,07,19,06,25,10.70
2010,07,19,06,26,10.70
2010,07,19,06,27,10.80
2010,07,19,06,28,10.80
2010,07,19,06,29,10.80
2010,07,19,06,30,10.90
2010,07,19,06,31,10.90
2010,07,19,06,32,10.90
2010,07,19,06,33,10.90
2010,07,19,06,34,10.90
2010,07,19,06,35,10.90
2010,07,19,06,36,11.00
2010,07,19,06,37,11.00
2010,07,19,06,38,11.00
2010,07,19,06,39,11.00
2010,07,19,06,40,11.00
2010,07,19,06,41,11.00
2010,07,19,06,42,11.10
2010,07,19,06,43,11.10
2010,07,19,06,44,11.10
2010,07,19,06,45,11.20
2010,07,19,06,46,11.20
2010,07,19,06,47,11.20
2010,07,19,06,48,11.30
2010,07,19,06,49,11.30
2010,07,19,06,50,11.30
2010,07,19,06,51,11.40
2010,07,19,06,52,11.40
2010,07,19,06,53,11.50
2010,07,19,06,54,11.50
2010,07,19,06,55,11.60
2010,07,19,06,56,11.70
2010,07,19,06,57,11.70
2010,07,19,06,58,11.70
2010,07,19,06,59,11.80
2010,07,19,07,00,11.80
2010,07,19,07,01,11.90
2010,07,19,07,02,11.90
2010,07,19,07,03,11.90
2010,07,19,07,04,11.90
2010,07,19,07,05,12.00
2010,07,19,07,06,12.00
2010,07,19,07,07,12.10
2010,07,19,07,08,12.10
2010,07,19,07,09,12.10
2010,07,19,07,10,12.20
2010,07,19,07,11,12.20
2010,07,19,07,12,12.30
2010,07,19,07,13,12.30
2010,07,19,07,14,12.40
2010,07,19,07,15,12.40
2010,07,19,07,16,12.50
2010,07,19,07,17,12.50
2010,07,19,07,18,12.60
2010,07,19,07,19,12.60
2010,07,19,07,20,12.70
2010,07,19,07,21,12.80
2010,07,19,07,22,12.80
2010,07,19,07,23,12.90
2010,07,19,07,24,12.90
2010,07,19,07,25,13.00
2010,07,19,07,26,13.10
2010,07,19,07,27,13.10
2010,07,19,07,28,13.20
2010,07,19,07,29,13.20
2010,07,19,07,30,13.30
2010,07,19,07,31,13.40
2010,07,19,07,32,13.40
2010,07,19,07,33,13.50
2010,07,19,07,34,13.50
2010,07,19,07,35,13.60
2010,07,19,07,36,13.70
2010,07,19,07,37,13.80
2010,07,19,07,38,13.80
2010,07,19,07,39,13.90
2010,07,19,07,40,13.90
2010,07,19,07,41,14.00
2010,07,19,07,42,14.10
2010,07,19,07,43,14.10
2010,07,19,07,44,14.20
2010,07,19,07,45,14.20
2010,07,19,07,46,14.20
2010,07,19,07,47,14.20
2010,07,19,07,48,14.30
2010,07,19,07,49,14.30
2010,07,19,07,50,14.30
2010,07,19,07,51,14.20
2010,07,19,07,52,14.20
2010,07,19,07,53,14.20
2010,07,19,07,54,14.20
2010,07,19,07,55,14.20
2010,07,19,07,56,14.20
2010,07,19,07,57,14.20
2010,07,19,07,58,14.20
2010,07,19,07,59,14.20
2010,07,19,08,00,14.20
2010,07,19,08,01,14.20
2010,07,19,08,02,14.20
2010,07,19,08,03,14.30
2010,07,19,08,04,14.30
2010,07,19,08,05,14.30
2010,07,19,08,06,14.40
2010,07,19,08,07,14.40
2010,07,19,08,08,14.50
2010,07,19,08,09,14.60
2010,07,19,08,10,14.60
2010,07,19,08,11,14.70
2010,07,19,08,12,14.70
2010,07,19,08,13,14.70
2010,07,19,08,14,14.70
2010,07,19,08,15,14.80
2010,07,19,08,16,14.70
2010,07,19,08,17,14.80
2010,07,19,08,18,14.80
2010,07,19,08,19,14.80
2010,07,19,08,20,14.70
2010,07,19,08,21,14.70
2010,07,19,08,22,14.80
2010,07,19,08,23,14.80
2010,07,19,08,24,14.80
2010,07,19,08,25,14.80
2010,07,19,08,26,14.80
2010,07,19,08,27,14.80
2010,07,19,08,28,14.80
2010,07,19,08,29,14.80
2010,07,19,08,30,14.80
2010,07,19,08,31,14.80
2010,07,19,08,32,14.90
2010,07,19,08,33,14.90
2010,07,19,08,34,15.00
2010,07,19,08,35,15.00
2010,07,19,08,36,15.00
2010,07,19,08,37,15.00
2010,07,19,08,38,15.00
2010,07,19,08,39,15.00
2010,07,19,08,40,15.00
2010,07,19,08,41,15.10
2010,07,19,08,42,15.10
2010,07,19,08,43,15.10
2010,07,19,08,44,15.10
2010,07,19,08,45,15.10
2010,07,19,08,46,15.10
2010,07,19,08,47,15.10
2010,07,19,08,48,15.10
2010,07,19,08,49,15.10
2010,07,19,08,50,15.10
2010,07,19,08,51,15.10
2010,07,19,08,52,15.10
2010,07,19,08,53,15.20
2010,07,19,08,54,15.10
2010,07,19,08,55,15.10
2010,07,19,08,56,15.10
2010,07,19,08,57,15.10
2010,07,19,08,58,15.20
2010,07,19,08,59,15.20
2010,07,19,09,00,15.20
2010,07,19,09,01,15.20
2010,07,19,09,02,15.20
2010,07,19,09,03,15.20
2010,07,19,09,04,15.20
2010,07,19,09,05,15.20
2010,07,19,09,06,15.20
2010,07,19,09,07,15.20
2010,07,19,09,08,15.30
2010,07,19,09,09,15.30
2010,07,19,09,10,15.30
2010,07,19,09,11,15.30
2010,07,19,09,12,15.20
2010,07,19,09,13,15.20
2010,07,19,09,14,15.10
2010,07,19,09,15,15.00
2010,07,19,09,16,15.00
2010,07,19,09,17,15.00
2010,07,19,09,18,14.90
2010,07,19,09,19,14.90
2010,07,19,09,20,14.90
2010,07,19,09,21,15.00
2010,07,19,09,22,15.00
2010,07,19,09,23,15.00
2010,07,19,09,24,15.10
2010,07,19,09,25,15.10
2010,07,19,09,26,15.20
2010,07,19,09,27,15.20
2010,07,19,09,28,15.20
2010,07,19,09,29,15.10
2010,07,19,09,30,15.20
2010,07,19,09,31,15.20
2010,07,19,09,32,15.20
2010,07,19,09,33,15.30
2010,07,19,09,34,15.30
2010,07,19,09,35,15.40
2010,07,19,09,36,15.50
2010,07,19,09,37,15.60
2010,07,19,09,38,15.70
2010,07,19,09,39,15.80
2010,07,19,09,40,15.80
2010,07,19,09,41,15.90
2010,07,19,09,42,16.00
2010,07,19,09,43,16.10
2010,07,19,09,44,16.10
2010,07,19,09,45,16.10
2010,07,19,09,46,16.20
2010,07,19,09,47,16.20
2010,07,19,09,48,16.20
2010,07,19,09,49,16.10
2010,07,19,09,50,16.10
2010,07,19,09,51,16.00
2010,07,19,09,52,16.10
2010,07,19,09,53,16.10
2010,07,19,09,54,16.00
2010,07,19,09,55,16.00
2010,07,19,09,56,16.00
2010,07,19,09,57,16.00
2010,07,19,09,58,16.00
2010,07,19,09,59,16.00
2010,07,19,10,00,16.00
2010,07,19,10,01,16.00
2010,07,19,10,02,16.00
2010,07,19,10,03,16.00
2010,07,19,10,04,15.90
2010,07,19,10,05,15.90
2010,07,19,10,06,15.80
2010,07,19,10,07,15.60
2010,07,19,10,08,15.60
2010,07,19,10,09,15.60
2010,07,19,10,10,15.60
2010,07,19,10,11,15.60
2010,07,19,10,12,15.70
2010,07,19,10,13,15.70
2010,07,19,10,14,15.70
2010,07,19,10,15,15.70
2010,07,19,10,16,15.70
2010,07,19,10,17,15.60
2010,07,19,10,18,15.60
2010,07,19,10,19,15.50
2010,07,19,10,20,15.50
2010,07,19,10,21,15.50
2010,07,19,10,22,15.50
2010,07,19,10,23,15.50
2010,07,19,10,24,15.40
2010,07,19,10,25,15.30
2010,07,19,10,26,15.20
2010,07,19,10,27,15.00
2010,07,19,10,28,14.90
2010,07,19,10,29,14.80
2010,07,19,10,30,14.80
2010,07,19,10,31,14.70
2010,07,19,10,32,14.70
2010,07,19,10,33,14.70
2010,07,19,10,34,14.70
2010,07,19,10,35,14.70
2010,07,19,10,36,14.70
2010,07,19,10,37,14.60
2010,07,19,10,38,14.60
2010,07,19,10,39,14.60
2010,07,19,10,40,14.60
2010,07,19,10,41,14.60
2010,07,19,10,42,14.60
2010,07,19,10,43,14.60
2010,07,19,10,44,14.60
2010,07,19,10,45,14.70
2010,07,19,10,46,14.70
2010,07,19,10,47,14.60
2010,07,19,10,48,14.60
2010,07,19,10,49,14.50
2010,07,19,10,50,14.50
2010,07,19,10,51,14.40
2010,07,19,10,52,14.40
2010,07,19,10,53,14.40
2010,07,19,10,54,14.40
2010,07,19,10,55,14.40
2010,07,19,10,56,14.40
2010,07,19,10,57,14.40
2010,07,19,10,58,14.40
2010,07,19,10,59,14.30
2010,07,19,11,00,14.30
2010,07,19,11,01,14.20
2010,07,19,11,02,14.20
2010,07,19,11,03,14.30
2010,07,19,11,04,14.30
2010,07,19,11,05,14.40
2010,07,19,11,06,14.40
2010,07,19,11,07,14.50
2010,07,19,11,08,14.50
2010,07,19,11,09,14.60
2010,07,19,11,10,14.60
2010,07,19,11,11,14.70
2010,07,19,11,12,14.70
2010,07,19,11,13,14.70
2010,07,19,11,14,14.70
2010,07,19,11,15,14.70
2010,07,19,11,16,14.70
2010,07,19,11,17,14.60
2010,07,19,11,18,14.60
2010,07,19,11,19,14.50
2010,07,19,11,20,14.50
2010,07,19,11,21,14.40
2010,07,19,11,22,14.40
2010,07,19,11,23,14.30
2010,07,19,11,24,14.30
2010,07,19,11,25,14.40
2010,07,19,11,26,14.40
2010,07,19,11,27,14.40
2010,07,19,11,28,14.40
2010,07,19,11,29,14.50
2010,07,19,11,30,14.60
2010,07,19,11,31,14.60
2010,07,19,11,32,14.70
2010,07,19,11,33,14.80
2010,07,19,11,34,14.90
2010,07,19,11,35,14.90
2010,07,19,11,36,14.90
2010,07,19,11,37,14.90
2010,07,19,11,38,14.90
2010,07,19,11,39,15.00
2010,07,19,11,40,15.00
2010,07,19,11,41,15.00
2010,07,19,11,42,15.00
2010,07,19,11,43,14.90
2010,07,19,11,44,14.90
2010,07,19,11,45,14.80
2010,07,19,11,46,14.90
2010,07,19,11,47,14.90
2010,07,19,11,48,14.90
2010,07,19,11,49,15.00
2010,07,19,11,50,15.00
2010,07,19,11,51,14.90
2010,07,19,11,52,14.90
2010,07,19,11,53,15.00
2010,07,19,11,54,15.00
2010,07,19,11,55,15.10
2010,07,19,11,56,15.10
2010,07,19,11,57,15.10
2010,07,19,11,58,15.20
2010,07,19,11,59,15.20
2010,07,19,12,00,15.20
2010,07,19,12,01,15.20
2010,07,19,12,02,15.10
2010,07,19,12,03,15.10
2010,07,19,12,04,15.10
2010,07,19,12,05,15.10
2010,07,19,12,06,15.10
2010,07,19,12,07,15.10
2010,07,19,12,08,15.10
2010,07,19,12,09,15.10
2010,07,19,12,10,15.10
2010,07,19,12,11,15.20
2010,07,19,12,12,15.20
2010,07,19,12,13,15.30
2010,07,19,12,14,15.30
2010,07,19,12,15,15.30
2010,07,19,12,16,15.40
2010,07,19,12,17,15.40
2010,07,19,12,18,15.50
2010,07,19,12,19,15.60
2010,07,19,12,20,15.60
2010,07,19,12,21,15.70
2010,07,19,12,22,15.70
2010,07,19,12,23,15.70
2010,07,19,12,24,15.70
2010,07,19,12,25,15.70
2010,07,19,12,26,15.70
2010,07,19,12,27,15.70
2010,07,19,12,28,15.70
2010,07,19,12,29,15.70
2010,07,19,12,30,15.80
2010,07,19,12,31,15.80
2010,07,19,12,32,15.80
2010,07,19,12,33,15.80
2010,07,19,12,34,15.70
2010,07,19,12,35,15.70
2010,07,19,12,36,15.70
2010,07,19,12,37,15.60
2010,07,19,12,38,15.60
2010,07,19,12,39,15.60
2010,07,19,12,40,15.50
2010,07,19,12,41,15.40
2010,07,19,12,42,15.40
2010,07,19,12,43,15.40
2010,07,19,12,44,15.30
2010,07,19,12,45,15.30
2010,07,19,12,46,15.30
2010,07,19,12,47,15.30
2010,07,19,12,48,15.30
2010,07,19,12,49,15.30
2010,07,19,12,50,15.40
2010,07,19,12,51,15.40
2010,07,19,12,52,15.50
2010,07,19,12,53,15.40
2010,07,19,12,54,15.40
2010,07,19,12,55,15.40
2010,07,19,12,56,15.40
2010,07,19,12,57,15.40
2010,07,19,12,58,15.40
2010,07,19,12,59,15.40
2010,07,19,13,00,15.40
2010,07,19,13,01,15.50
2010,07,19,13,02,15.50
2010,07,19,13,03,15.60
2010,07,19,13,04,15.70
2010,07,19,13,05,15.80
2010,07,19,13,06,15.80
2010,07,19,13,07,15.70
2010,07,19,13,08,15.70
2010,07,19,13,09,15.70
2010,07,19,13,10,15.80
2010,07,19,13,11,15.80
2010,07,19,13,12,15.80
2010,07,19,13,13,15.80
2010,07,19,13,14,15.90
2010,07,19,13,15,16.00
2010,07,19,13,16,16.10
2010,07,19,13,17,16.10
2010,07,19,13,18,16.20
2010,07,19,13,19,16.20
2010,07,19,13,20,16.20
2010,07,19,13,21,16.20
2010,07,19,13,22,16.20
2010,07,19,13,23,16.20
2010,07,19,13,24,16.20
2010,07,19,13,25,16.20
2010,07,19,13,26,16.20
2010,07,19,13,27,16.20
2010,07,19,13,28,16.10
2010,07,19,13,29,16.10
2010,07,19,13,30,16.00
2010,07,19,13,31,16.10
2010,07,19,13,32,16.10
2010,07,19,13,33,16.10
2010,07,19,13,34,16.20
2010,07,19,13,35,16.20
2010,07,19,13,36,16.20
2010,07,19,13,37,16.20
2010,07,19,13,38,16.20
2010,07,19,13,39,16.20
2010,07,19,13,40,16.20
2010,07,19,13,41,16.20
2010,07,19,13,42,16.20
2010,07,19,13,43,16.20
2010,07,19,13,44,16.20
2010,07,19,13,45,16.30
2010,07,19,13,46,16.30
2010,07,19,13,47,16.40
2010,07,19,13,48,16.50
2010,07,19,13,49,16.70
2010,07,19,13,50,16.80
2010,07,19,13,51,16.80
2010,07,19,13,52,16.80
2010,07,19,13,53,16.80
2010,07,19,13,54,16.80
2010,07,19,13,55,16.80
2010,07,19,13,56,16.80
2010,07,19,13,57,16.80
2010,07,19,13,58,16.80
2010,07,19,13,59,16.90
2010,07,19,14,00,17.00
2010,07,19,14,01,17.20
2010,07,19,14,02,17.30
2010,07,19,14,03,17.40
2010,07,19,14,04,17.50
2010,07,19,14,05,17.50
2010,07,19,14,06,17.60
2010,07,19,14,07,17.50
2010,07,19,14,08,17.60
2010,07,19,14,09,17.50
2010,07,19,14,10,17.50
2010,07,19,14,11,17.60
2010,07,19,14,12,17.50
2010,07,19,14,13,17.50
2010,07,19,14,14,17.50
2010,07,19,14,15,17.40
2010,07,19,14,16,17.40
2010,07,19,14,17,17.50
2010,07,19,14,18,17.50
2010,07,19,14,19,17.60
2010,07,19,14,20,17.80
2010,07,19,14,21,17.90
2010,07,19,14,22,18.00
2010,07,19,14,23,18.00
2010,07,19,14,24,17.90
2010,07,19,14,25,17.80
2010,07,19,14,26,17.80
2010,07,19,14,27,17.90
2010,07,19,14,28,17.90
2010,07,19,14,29,17.90
2010,07,19,14,30,17.90
2010,07,19,14,31,17.90
2010,07,19,14,32,18.00
2010,07,19,14,33,18.00
2010,07,19,14,34,18.00
2010,07,19,14,35,18.00
2010,07,19,14,36,18.00
2010,07,19,14,37,18.00
2010,07,19,14,38,18.00
2010,07,19,14,39,17.90
2010,07,19,14,40,17.90
2010,07,19,14,41,17.90
2010,07,19,14,42,18.00
2010,07,19,14,43,18.20
2010,07,19,14,44,18.30
2010,07,19,14,45,18.50
2010,07,19,14,46,18.60
2010,07,19,14,47,18.50
2010,07,19,14,48,18.50
2010,07,19,14,49,18.50
2010,07,19,14,50,18.40
2010,07,19,14,51,18.30
2010,07,19,14,52,18.30
2010,07,19,14,53,18.30
2010,07,19,14,54,18.20
2010,07,19,14,55,18.10
2010,07,19,14,56,18.10
2010,07,19,14,57,18.10
2010,07,19,14,58,18.20
2010,07,19,14,59,18.20
2010,07,19,15,00,18.20
2010,07,19,15,01,18.20
2010,07,19,15,02,18.30
2010,07,19,15,03,18.30
2010,07,19,15,04,18.30
2010,07,19,15,05,18.40
2010,07,19,15,06,18.40
2010,07,19,15,07,18.40
2010,07,19,15,08,18.40
2010,07,19,15,09,18.50
2010,07,19,15,10,18.50
2010,07,19,15,11,18.40
2010,07,19,15,12,18.30
2010,07,19,15,13,18.30
2010,07,19,15,14,18.30
2010,07,19,15,15,18.40
2010,07,19,15,16,18.40
2010,07,19,15,17,18.50
2010,07,19,15,18,18.60
2010,07,19,15,19,18.60
2010,07,19,15,20,18.60
2010,07,19,15,21,18.60
2010,07,19,15,22,18.70
2010,07,19,15,23,18.70
2010,07,19,15,24,18.70
2010,07,19,15,25,18.70
2010,07,19,15,26,18.70
2010,07,19,15,27,18.70
2010,07,19,15,28,18.70
2010,07,19,15,29,18.60
2010,07,19,15,30,18.70
2010,07,19,15,31,18.60
2010,07,19,15,32,18.60
2010,07,19,15,33,18.60
2010,07,19,15,34,18.60
2010,07,19,15,35,18.60
2010,07,19,15,36,18.60
2010,07,19,15,37,18.60
2010,07,19,15,38,18.60
2010,07,19,15,39,18.80
2010,07,19,15,40,18.80
2010,07,19,15,41,18.90
2010,07,19,15,42,18.90
2010,07,19,15,43,18.90
2010,07,19,15,44,19.00
2010,07,19,15,45,19.00
2010,07,19,15,46,19.10
2010,07,19,15,47,19.10
2010,07,19,15,48,19.00
2010,07,19,15,49,19.00
2010,07,19,15,50,19.10
2010,07,19,15,51,19.20
2010,07,19,15,52,19.30
2010,07,19,15,53,19.40
2010,07,19,15,54,19.50
2010,07,19,15,55,19.60
2010,07,19,15,56,19.60
2010,07,19,15,57,19.50
2010,07,19,15,58,19.40
2010,07,19,15,59,19.30
2010,07,19,16,00,19.30
2010,07,19,16,01,19.10
2010,07,19,16,02,19.00
2010,07,19,16,03,19.00
2010,07,19,16,04,18.90
2010,07,19,16,05,19.00
2010,07,19,16,06,19.10
2010,07,19,16,07,19.10
2010,07,19,16,08,19.00
2010,07,19,16,09,19.00
2010,07,19,16,10,19.00
2010,07,19,16,11,19.00
2010,07,19,16,12,19.10
2010,07,19,16,13,19.20
2010,07,19,16,14,19.20
2010,07,19,16,15,19.10
2010,07,19,16,16,19.10
2010,07,19,16,17,19.10
2010,07,19,16,18,19.10
2010,07,19,16,19,19.20
2010,07,19,16,20,19.30
2010,07,19,16,21,19.30
2010,07,19,16,22,19.30
2010,07,19,16,23,19.30
2010,07,19,16,24,19.30
2010,07,19,16,25,19.20
2010,07,19,16,26,19.10
2010,07,19,16,27,19.00
2010,07,19,16,28,18.90
2010,07,19,16,29,18.90
2010,07,19,16,30,18.80
2010,07,19,16,31,18.70
2010,07,19,16,32,18.70
2010,07,19,16,33,18.80
2010,07,19,16,34,18.90
2010,07,19,16,35,18.90
2010,07,19,16,36,18.90
2010,07,19,16,37,18.90
2010,07,19,16,38,18.80
2010,07,19,16,39,18.70
2010,07,19,16,40,18.60
2010,07,19,16,41,18.60
2010,07,19,16,42,18.60
2010,07,19,16,43,18.60
2010,07,19,16,44,18.60
2010,07,19,16,45,18.60
2010,07,19,16,46,18.60
2010,07,19,16,47,18.50
2010,07,19,16,48,18.40
2010,07,19,16,49,18.30
2010,07,19,16,50,18.30
2010,07,19,16,51,18.30
2010,07,19,16,52,18.20
2010,07,19,16,53,18.20
2010,07,19,16,54,18.10
2010,07,19,16,55,18.10
2010,07,19,16,56,18.10
2010,07,19,16,57,18.10
2010,07,19,16,58,18.10
2010,07,19,16,59,18.10
2010,07,19,17,00,18.10
2010,07,19,17,01,18.10
2010,07,19,17,02,18.30
2010,07,19,17,03,18.40
2010,07,19,17,04,18.50
2010,07,19,17,05,18.70
2010,07,19,17,06,18.80
2010,07,19,17,07,18.90
2010,07,19,17,08,19.00
2010,07,19,17,09,18.90
2010,07,19,17,10,18.80
2010,07,19,17,11,18.80
2010,07,19,17,12,18.80
2010,07,19,17,13,18.90
2010,07,19,17,14,18.90
2010,07,19,17,15,18.90
2010,07,19,17,16,19.00
2010,07,19,17,17,19.00
2010,07,19,17,18,19.00
2010,07,19,17,19,19.10